M I D A S
Marine Information and Data Acquisition System
Tripno 631 of the Zeeleeuw from 2004-01-21 07:43:08 to 2004-01-21 15:52:35
Back to CruiseResearch ActivitiesStationsMapUnderway DataData graphs

EquipmentUnitsComment
TimeDGPSUTC
LatitudeDGPSDM.mWGS84
LongitudeDGPSDM.mWGS84
TemperatureSBE03/SBE38deg celciusITS90
ConductivitySBE21S/mITS90
SalinitySBE21 Practical Salinity Units
ChlorophylAChelsea fluorimeterg/lCalibrated in Aceton
Missing or incorrect values are displayed as -999
Sea surface data collected by the RV Zeeleeuw from 2004-01-21 07:43:08 to 2004-01-21 15:52:35
                                                                                    Next 1000 lines
Time Latitude Longitude Temperature Conductivity Salinity ChlorophylA
2004-01-21 07:43:15 51°13.934 2°55.55 -999 -999 -999 -999
2004-01-21 07:43:19 51°13.941 2°55.544 -999 -999 -999 -999
2004-01-21 07:43:23 51°13.949 2°55.539 -999 -999 -999 -999
2004-01-21 07:43:28 51°13.958 2°55.533 -999 -999 -999 -999
2004-01-21 07:43:35 51°13.972 2°55.524 -999 -999 -999 -999
2004-01-21 07:43:39 51°13.979 2°55.519 -999 -999 -999 -999
2004-01-21 07:43:45 51°13.991 2°55.511 -999 -999 -999 -999
2004-01-21 07:43:49 51°13.998 2°55.506 -999 -999 -999 -999
2004-01-21 07:43:55 51°14.01 2°55.498 -999 -999 -999 -999
2004-01-21 07:43:59 51°14.017 2°55.493 -999 -999 -999 -999
2004-01-21 07:44:03 51°14.025 2°55.488 -999 -999 -999 -999
2004-01-21 07:44:10 51°14.038 2°55.479 -999 -999 -999 -999
2004-01-21 07:44:15 51°14.048 2°55.473 -999 -999 -999 -999
2004-01-21 07:44:20 51°14.057 2°55.466 -999 -999 -999 -999
2004-01-21 07:44:24 51°14.065 2°55.46 -999 -999 -999 -999
2004-01-21 07:44:30 51°14.077 2°55.452 -999 -999 -999 -999
2004-01-21 07:44:35 51°14.087 2°55.444 -999 -999 -999 -999
2004-01-21 07:44:39 51°14.095 2°55.439 -999 -999 -999 -999
2004-01-21 07:44:43 51°14.103 2°55.433 -999 -999 -999 -999
2004-01-21 07:44:50 51°14.117 2°55.422 -999 -999 -999 -999
2004-01-21 07:44:55 51°14.128 2°55.413 -999 -999 -999 -999
2004-01-21 07:44:59 51°14.136 2°55.406 -999 -999 -999 -999
2004-01-21 07:45:03 51°14.145 2°55.399 -999 -999 -999 -999
2004-01-21 07:45:07 51°14.154 2°55.392 -999 -999 -999 -999
2004-01-21 07:45:15 51°14.173 2°55.376 -999 -999 -999 -999
2004-01-21 07:45:20 51°14.184 2°55.365 -999 -999 -999 -999
2004-01-21 07:45:25 51°14.196 2°55.355 -999 -999 -999 -999
2004-01-21 07:45:30 51°14.208 2°55.344 -999 -999 -999 -999
2004-01-21 07:45:35 51°14.22 2°55.331 -999 -999 -999 -999
2004-01-21 07:45:39 51°14.229 2°55.32 -999 -999 -999 -999
2004-01-21 07:45:44 51°14.24 2°55.306 -999 -999 -999 -999
2004-01-21 07:45:47 51°14.246 2°55.296 -999 -999 -999 -999
2004-01-21 07:45:55 51°14.263 2°55.269 -999 -999 -999 -999
2004-01-21 07:45:59 51°14.27 2°55.255 -999 -999 -999 -999
2004-01-21 07:46:03 51°14.278 2°55.241 -999 -999 -999 -999
2004-01-21 07:46:09 51°14.29 2°55.219 -999 -999 -999 -999
2004-01-21 07:46:15 51°14.301 2°55.196 -999 -999 -999 -999
2004-01-21 07:46:19 51°14.309 2°55.182 -999 -999 -999 -999
2004-01-21 07:46:24 51°14.318 2°55.162 -999 -999 -999 -999
2004-01-21 07:46:30 51°14.328 2°55.139 -999 -999 -999 -999
2004-01-21 07:46:35 51°14.337 2°55.118 -999 -999 -999 -999
2004-01-21 07:46:40 51°14.346 2°55.097 -999 -999 -999 -999
2004-01-21 07:46:43 51°14.351 2°55.084 -999 -999 -999 -999
2004-01-21 07:46:49 51°14.36 2°55.057 -999 -999 -999 -999
2004-01-21 07:46:55 51°14.368 2°55.029 -999 -999 -999 -999
2004-01-21 07:47:00 51°14.373 2°55.004 -999 -999 -999 -999
2004-01-21 07:47:05 51°14.377 2°54.978 -999 -999 -999 -999
2004-01-21 07:47:09 51°14.381 2°54.957 -999 -999 -999 -999
2004-01-21 07:47:15 51°14.386 2°54.925 -999 -999 -999 -999
2004-01-21 07:47:19 51°14.389 2°54.904 -999 -999 -999 -999
2004-01-21 07:47:23 51°14.392 2°54.882 -999 -999 -999 -999
2004-01-21 07:47:30 51°14.396 2°54.843 -999 -999 -999 -999
2004-01-21 07:47:35 51°14.398 2°54.815 -999 -999 -999 -999
2004-01-21 07:47:39 51°14.399 2°54.792 -999 -999 -999 -999
2004-01-21 07:47:43 51°14.4 2°54.768 -999 -999 -999 -999
2004-01-21 07:47:49 51°14.399 2°54.733 -999 -999 -999 -999
2004-01-21 07:47:55 51°14.397 2°54.697 -999 -999 -999 -999
2004-01-21 07:47:59 51°14.396 2°54.673 -999 -999 -999 -999
2004-01-21 07:48:03 51°14.394 2°54.649 -999 -999 -999 -999
2004-01-21 07:48:09 51°14.391 2°54.613 -999 -999 -999 -999
2004-01-21 07:48:15 51°14.385 2°54.576 -999 -999 -999 -999
2004-01-21 07:48:20 51°14.38 2°54.546 -999 -999 -999 -999
2004-01-21 07:48:25 51°14.374 2°54.517 -999 -999 -999 -999
2004-01-21 07:48:30 51°14.368 2°54.487 -999 -999 -999 -999
2004-01-21 07:48:35 51°14.362 2°54.458 -999 -999 -999 -999
2004-01-21 07:48:39 51°14.357 2°54.435 -999 -999 -999 -999
2004-01-21 07:48:43 51°14.351 2°54.412 -999 -999 -999 -999
2004-01-21 07:48:50 51°14.339 2°54.372 -999 -999 -999 -999
2004-01-21 07:48:55 51°14.33 2°54.345 -999 -999 -999 -999
2004-01-21 07:49:00 51°14.32 2°54.318 -999 -999 -999 -999
2004-01-21 07:49:05 51°14.31 2°54.291 -999 -999 -999 -999
2004-01-21 07:49:07 51°14.306 2°54.28 -999 -999 -999 -999
2004-01-21 07:49:15 51°14.289 2°54.238 -999 -999 -999 -999
2004-01-21 07:49:19 51°14.28 2°54.217 -999 -999 -999 -999
2004-01-21 07:49:25 51°14.267 2°54.185 -999 -999 -999 -999
2004-01-21 07:49:30 51°14.257 2°54.158 -999 -999 -999 -999
2004-01-21 07:49:35 51°14.248 2°54.13 -999 -999 -999 -999
2004-01-21 07:49:40 51°14.238 2°54.103 -999 -999 -999 -999
2004-01-21 07:49:44 51°14.23 2°54.081 -999 -999 -999 -999
2004-01-21 07:49:50 51°14.218 2°54.048 -999 -999 -999 -999
2004-01-21 07:49:55 51°14.207 2°54.022 -999 -999 -999 -999
2004-01-21 07:49:59 51°14.199 2°54.001 -999 -999 -999 -999
2004-01-21 07:50:05 51°14.185 2°53.97 -999 -999 -999 -999
2004-01-21 07:50:10 51°14.174 2°53.943 -999 -999 -999 -999
2004-01-21 07:50:15 51°14.162 2°53.918 -999 -999 -999 -999
2004-01-21 07:50:19 51°14.153 2°53.898 -999 -999 -999 -999
2004-01-21 07:50:25 51°14.138 2°53.867 -999 -999 -999 -999
2004-01-21 07:50:30 51°14.127 2°53.842 -999 -999 -999 -999
2004-01-21 07:50:35 51°14.115 2°53.816 -999 -999 -999 -999
2004-01-21 07:50:40 51°14.103 2°53.79 -999 -999 -999 -999
2004-01-21 07:50:43 51°14.097 2°53.775 -999 -999 -999 -999
2004-01-21 07:50:50 51°14.082 2°53.737 -999 -999 -999 -999
2004-01-21 07:50:55 51°14.072 2°53.709 -999 -999 -999 -999
2004-01-21 07:51:00 51°14.062 2°53.681 -999 -999 -999 -999
2004-01-21 07:51:03 51°14.057 2°53.664 -999 -999 -999 -999
2004-01-21 07:51:10 51°14.043 2°53.625 -999 -999 -999 -999
2004-01-21 07:51:15 51°14.035 2°53.597 -999 -999 -999 -999
2004-01-21 07:51:20 51°14.026 2°53.568 -999 -999 -999 -999
2004-01-21 07:51:23 51°14.02 2°53.551 -999 -999 -999 -999
2004-01-21 07:51:30 51°14.007 2°53.511 -999 -999 -999 -999
2004-01-21 07:51:35 51°13.998 2°53.483 -999 -999 -999 -999
2004-01-21 07:51:40 51°13.988 2°53.455 -999 -999 -999 -999
2004-01-21 07:51:45 51°13.978 2°53.427 -999 -999 -999 -999
2004-01-21 07:51:50 51°13.969 2°53.399 -999 -999 -999 -999
2004-01-21 07:51:55 51°13.958 2°53.371 -999 -999 -999 -999
2004-01-21 07:51:59 51°13.951 2°53.349 -999 -999 -999 -999
2004-01-21 07:52:03 51°13.942 2°53.327 -999 -999 -999 -999
2004-01-21 07:52:08 51°13.933 2°53.298 -999 -999 -999 -999
2004-01-21 07:52:15 51°13.919 2°53.259 -999 -999 -999 -999
2004-01-21 07:52:19 51°13.911 2°53.237 -999 -999 -999 -999
2004-01-21 07:52:23 51°13.903 2°53.214 -999 -999 -999 -999
2004-01-21 07:52:27 51°13.896 2°53.191 -999 -999 -999 -999
2004-01-21 07:52:35 51°13.881 2°53.146 -999 -999 -999 -999
2004-01-21 07:52:40 51°13.871 2°53.117 -999 -999 -999 -999
2004-01-21 07:52:43 51°13.866 2°53.1 -999 -999 -999 -999
2004-01-21 07:52:50 51°13.853 2°53.06 -999 -999 -999 -999
2004-01-21 07:52:55 51°13.844 2°53.031 -999 -999 -999 -999
2004-01-21 07:52:59 51°13.836 2°53.008 -999 -999 -999 -999
2004-01-21 07:53:03 51°13.828 2°52.985 -999 -999 -999 -999
2004-01-21 07:53:09 51°13.817 2°52.95 -999 -999 -999 -999
2004-01-21 07:53:15 51°13.805 2°52.916 -999 -999 -999 -999
2004-01-21 07:53:19 51°13.797 2°52.893 -999 -999 -999 -999
2004-01-21 07:53:23 51°13.789 2°52.871 -999 -999 -999 -999
2004-01-21 07:53:29 51°13.777 2°52.836 -999 -999 -999 -999
2004-01-21 07:53:35 51°13.766 2°52.801 -999 -999 -999 -999
2004-01-21 07:53:39 51°13.759 2°52.778 -999 -999 -999 -999
2004-01-21 07:53:43 51°13.751 2°52.755 -999 -999 -999 -999
2004-01-21 07:53:50 51°13.738 2°52.714 -999 -999 -999 -999
2004-01-21 07:53:55 51°13.729 2°52.685 -999 -999 -999 -999
2004-01-21 07:54:00 51°13.719 2°52.656 -999 -999 -999 -999
2004-01-21 07:54:03 51°13.714 2°52.638 -999 -999 -999 -999
2004-01-21 07:54:10 51°13.701 2°52.598 -999 -999 -999 -999
2004-01-21 07:54:15 51°13.692 2°52.568 -999 -999 -999 -999
2004-01-21 07:54:19 51°13.684 2°52.545 -999 -999 -999 -999
2004-01-21 07:54:23 51°13.676 2°52.522 -999 -999 -999 -999
2004-01-21 07:54:30 51°13.663 2°52.481 -999 -999 -999 -999
2004-01-21 07:54:35 51°13.654 2°52.452 -999 -999 -999 -999
2004-01-21 07:54:40 51°13.644 2°52.423 -999 -999 -999 -999
2004-01-21 07:54:43 51°13.639 2°52.405 -999 -999 -999 -999
2004-01-21 07:54:50 51°13.626 2°52.365 -999 -999 -999 -999
2004-01-21 07:54:55 51°13.616 2°52.335 -999 -999 -999 -999
2004-01-21 07:55:00 51°13.606 2°52.306 -999 -999 -999 -999
2004-01-21 07:55:03 51°13.6 2°52.289 -999 -999 -999 -999
2004-01-21 07:55:10 51°13.586 2°52.248 -999 -999 -999 -999
2004-01-21 07:55:15 51°13.577 2°52.219 -999 -999 -999 -999
2004-01-21 07:55:20 51°13.567 2°52.19 -999 -999 -999 -999
2004-01-21 07:55:23 51°13.562 2°52.173 -999 -999 -999 -999
2004-01-21 07:55:30 51°13.549 2°52.132 -999 -999 -999 -999
2004-01-21 07:55:35 51°13.539 2°52.103 -999 -999 -999 -999
2004-01-21 07:55:40 51°13.53 2°52.073 -999 -999 -999 -999
2004-01-21 07:55:45 51°13.52 2°52.044 -999 -999 -999 -999
2004-01-21 07:55:50 51°13.511 2°52.014 -999 -999 -999 -999
2004-01-21 07:55:55 51°13.502 2°51.985 -999 -999 -999 -999
2004-01-21 07:56:00 51°13.492 2°51.956 -999 -999 -999 -999
2004-01-21 07:56:03 51°13.487 2°51.938 -999 -999 -999 -999
2004-01-21 07:56:10 51°13.474 2°51.897 -999 -999 -999 -999
2004-01-21 07:56:15 51°13.464 2°51.867 -999 -999 -999 -999
2004-01-21 07:56:19 51°13.456 2°51.844 -999 -999 -999 -999
2004-01-21 07:56:25 51°13.445 2°51.809 -999 -999 -999 -999
2004-01-21 07:56:30 51°13.435 2°51.78 -999 -999 -999 -999
2004-01-21 07:56:35 51°13.425 2°51.751 -999 -999 -999 -999
2004-01-21 07:56:39 51°13.417 2°51.727 -999 -999 -999 -999
2004-01-21 07:56:43 51°13.409 2°51.704 -999 -999 -999 -999
2004-01-21 07:56:50 51°13.396 2°51.663 -999 -999 -999 -999
2004-01-21 07:56:55 51°13.386 2°51.633 -999 -999 -999 -999
2004-01-21 07:56:59 51°13.378 2°51.61 -999 -999 -999 -999
2004-01-21 07:57:03 51°13.371 2°51.586 -999 -999 -999 -999
2004-01-21 07:57:09 51°13.359 2°51.551 -999 -999 -999 -999
2004-01-21 07:57:15 51°13.347 2°51.515 -999 -999 -999 -999
2004-01-21 07:57:19 51°13.339 2°51.492 -999 -999 -999 -999
2004-01-21 07:57:23 51°13.332 2°51.469 -999 -999 -999 -999
2004-01-21 07:57:27 51°13.324 2°51.445 -999 -999 -999 -999
2004-01-21 07:57:35 51°13.308 2°51.399 -999 -999 -999 -999
2004-01-21 07:57:40 51°13.298 2°51.369 -999 -999 -999 -999
2004-01-21 07:57:43 51°13.292 2°51.352 -999 -999 -999 -999
2004-01-21 07:57:49 51°13.28 2°51.316 -999 -999 -999 -999
2004-01-21 07:57:55 51°13.268 2°51.281 -999 -999 -999 -999
2004-01-21 07:57:59 51°13.261 2°51.258 -999 -999 -999 -999
2004-01-21 07:58:05 51°13.249 2°51.223 -999 -999 -999 -999
2004-01-21 07:58:10 51°13.239 2°51.193 -999 -999 -999 -999
2004-01-21 07:58:15 51°13.229 2°51.164 -999 -999 -999 -999
2004-01-21 07:58:20 51°13.22 2°51.134 -999 -999 -999 -999
2004-01-21 07:58:24 51°13.212 2°51.111 -999 -999 -999 -999
2004-01-21 07:58:28 51°13.204 2°51.087 -999 -999 -999 -999
2004-01-21 07:58:35 51°13.19 2°51.046 -999 -999 -999 -999
2004-01-21 07:58:39 51°13.182 2°51.023 -999 -999 -999 -999
2004-01-21 07:58:45 51°13.17 2°50.988 -999 -999 -999 -999
2004-01-21 07:58:49 51°13.161 2°50.965 -999 -999 -999 -999
2004-01-21 07:58:55 51°13.149 2°50.93 -999 -999 -999 -999
2004-01-21 07:58:59 51°13.141 2°50.907 -999 -999 -999 -999
2004-01-21 07:59:04 51°13.13 2°50.878 -999 -999 -999 -999
2004-01-21 07:59:10 51°13.118 2°50.844 -999 -999 -999 -999
2004-01-21 07:59:15 51°13.107 2°50.815 -999 -999 -999 -999
2004-01-21 07:59:19 51°13.1 2°50.792 -999 -999 -999 -999
2004-01-21 07:59:25 51°13.087 2°50.757 -999 -999 -999 -999
2004-01-21 07:59:28 51°13.081 2°50.74 -999 -999 -999 -999
2004-01-21 07:59:35 51°13.067 2°50.7 -999 -999 -999 -999
2004-01-21 07:59:39 51°13.059 2°50.676 -999 -999 -999 -999
2004-01-21 07:59:45 51°13.047 2°50.642 -999 -999 -999 -999
2004-01-21 07:59:49 51°13.038 2°50.619 -999 -999 -999 -999
2004-01-21 07:59:55 51°13.026 2°50.584 -999 -999 -999 -999
2004-01-21 07:59:59 51°13.018 2°50.561 -999 -999 -999 -999
2004-01-21 08:00:05 51°13.006 2°50.526 -999 -999 -999 -999
2004-01-21 08:00:09 51°12.998 2°50.503 -999 -999 -999 -999
2004-01-21 08:00:15 51°12.986 2°50.468 -999 -999 -999 -999
2004-01-21 08:00:19 51°12.978 2°50.445 -999 -999 -999 -999
2004-01-21 08:00:23 51°12.97 2°50.422 -999 -999 -999 -999
2004-01-21 08:00:30 51°12.956 2°50.381 -999 -999 -999 -999
2004-01-21 08:00:35 51°12.946 2°50.352 -999 -999 -999 -999
2004-01-21 08:00:40 51°12.935 2°50.323 -999 -999 -999 -999
2004-01-21 08:00:45 51°12.925 2°50.294 -999 -999 -999 -999
2004-01-21 08:00:48 51°12.919 2°50.277 -999 -999 -999 -999
2004-01-21 08:00:55 51°12.904 2°50.237 -999 -999 -999 -999
2004-01-21 08:00:59 51°12.896 2°50.214 -999 -999 -999 -999
2004-01-21 08:01:03 51°12.888 2°50.191 -999 -999 -999 -999
2004-01-21 08:01:09 51°12.876 2°50.156 -999 -999 -999 -999
2004-01-21 08:01:15 51°12.864 2°50.121 -999 -999 -999 -999
2004-01-21 08:01:20 51°12.854 2°50.092 -999 -999 -999 -999
2004-01-21 08:01:25 51°12.844 2°50.063 -999 -999 -999 -999
2004-01-21 08:01:30 51°12.834 2°50.034 -999 -999 -999 -999
2004-01-21 08:01:35 51°12.824 2°50.005 -999 -999 -999 -999
2004-01-21 08:01:39 51°12.816 2°49.982 -999 -999 -999 -999
2004-01-21 08:01:43 51°12.808 2°49.958 -999 -999 -999 -999
2004-01-21 08:01:47 51°12.8 2°49.935 -999 -999 -999 -999
2004-01-21 08:01:55 51°12.783 2°49.889 -999 -999 -999 -999
2004-01-21 08:01:59 51°12.775 2°49.866 -999 -999 -999 -999
2004-01-21 08:02:03 51°12.767 2°49.842 -999 -999 -999 -999
2004-01-21 08:02:10 51°12.753 2°49.802 -999 -999 -999 -999
2004-01-21 08:02:15 51°12.744 2°49.773 -999 -999 -999 -999
2004-01-21 08:02:19 51°12.735 2°49.75 -999 -999 -999 -999
2004-01-21 08:02:23 51°12.727 2°49.727 -999 -999 -999 -999
2004-01-21 08:02:30 51°12.713 2°49.686 -999 -999 -999 -999
2004-01-21 08:02:35 51°12.703 2°49.658 -999 -999 -999 -999
2004-01-21 08:02:39 51°12.695 2°49.634 -999 -999 -999 -999
2004-01-21 08:02:45 51°12.683 2°49.599 -999 -999 -999 -999
2004-01-21 08:02:50 51°12.673 2°49.571 -999 -999 -999 -999
2004-01-21 08:02:53 51°12.667 2°49.553 -999 -999 -999 -999
2004-01-21 08:02:59 51°12.655 2°49.519 -999 -999 -999 -999
2004-01-21 08:03:05 51°12.643 2°49.484 -999 -999 -999 -999
2004-01-21 08:03:10 51°12.633 2°49.455 -999 -999 -999 -999
2004-01-21 08:03:15 51°12.623 2°49.427 -999 -999 -999 -999
2004-01-21 08:03:19 51°12.615 2°49.404 -999 -999 -999 -999
2004-01-21 08:03:25 51°12.602 2°49.369 -999 -999 -999 -999
2004-01-21 08:03:29 51°12.594 2°49.346 -999 -999 -999 -999
2004-01-21 08:03:35 51°12.583 2°49.312 -999 -999 -999 -999
2004-01-21 08:03:39 51°12.574 2°49.289 -999 -999 -999 -999
2004-01-21 08:03:45 51°12.562 2°49.255 -999 -999 -999 -999
2004-01-21 08:03:50 51°12.552 2°49.226 -999 -999 -999 -999
2004-01-21 08:03:55 51°12.542 2°49.198 -999 -999 -999 -999
2004-01-21 08:03:59 51°12.534 2°49.175 -999 -999 -999 -999
2004-01-21 08:04:05 51°12.522 2°49.141 -999 -999 -999 -999
2004-01-21 08:04:10 51°12.513 2°49.112 -999 -999 -999 -999
2004-01-21 08:04:15 51°12.502 2°49.084 -999 -999 -999 -999
2004-01-21 08:04:20 51°12.492 2°49.055 -999 -999 -999 -999
2004-01-21 08:04:24 51°12.485 2°49.032 -999 -999 -999 -999
2004-01-21 08:04:29 51°12.474 2°49.004 -999 -999 -999 -999
2004-01-21 08:04:35 51°12.463 2°48.97 -999 -999 -999 -999
2004-01-21 08:04:39 51°12.455 2°48.947 -999 -999 -999 -999
2004-01-21 08:04:45 51°12.443 2°48.913 -999 -999 -999 -999
2004-01-21 08:04:47 51°12.439 2°48.902 -999 -999 -999 -999
2004-01-21 08:04:55 51°12.424 2°48.856 -999 -999 -999 -999
2004-01-21 08:04:59 51°12.417 2°48.832 -999 -999 -999 -999
2004-01-21 08:05:05 51°12.406 2°48.797 -999 -999 -999 -999
2004-01-21 08:05:08 51°12.401 2°48.779 -999 -999 -999 -999
2004-01-21 08:05:15 51°12.389 2°48.737 -999 -999 -999 -999
2004-01-21 08:05:19 51°12.382 2°48.713 -999 -999 -999 -999
2004-01-21 08:05:25 51°12.373 2°48.677 -999 -999 -999 -999
2004-01-21 08:05:30 51°12.364 2°48.648 -999 -999 -999 -999
2004-01-21 08:05:35 51°12.356 2°48.618 -999 -999 -999 -999
2004-01-21 08:05:40 51°12.347 2°48.588 -999 -999 -999 -999
2004-01-21 08:05:45 51°12.339 2°48.558 -999 -999 -999 -999
2004-01-21 08:05:48 51°12.333 2°48.54 -999 -999 -999 -999
2004-01-21 08:05:55 51°12.322 2°48.498 -999 -999 -999 -999
2004-01-21 08:05:59 51°12.315 2°48.474 -999 -999 -999 -999
2004-01-21 08:06:05 51°12.305 2°48.438 -999 -999 -999 -999
2004-01-21 08:06:09 51°12.298 2°48.414 -999 -999 -999 -999
2004-01-21 08:06:15 51°12.288 2°48.378 -999 -999 -999 -999
2004-01-21 08:06:20 51°12.279 2°48.348 -999 -999 -999 -999
2004-01-21 08:06:25 51°12.27 2°48.318 -999 -999 -999 -999
2004-01-21 08:06:30 51°12.262 2°48.288 -999 -999 -999 -999
2004-01-21 08:06:35 51°12.253 2°48.258 -999 -999 -999 -999
2004-01-21 08:06:40 51°12.245 2°48.228 -999 -999 -999 -999
2004-01-21 08:06:45 51°12.236 2°48.198 -999 -999 -999 -999
2004-01-21 08:06:47 51°12.233 2°48.186 -999 -999 -999 -999
2004-01-21 08:06:55 51°12.219 2°48.138 -999 -999 -999 -999
2004-01-21 08:07:00 51°12.211 2°48.107 -999 -999 -999 -999
2004-01-21 08:07:03 51°12.206 2°48.089 -999 -999 -999 -999
2004-01-21 08:07:10 51°12.195 2°48.046 -999 -999 -999 -999
2004-01-21 08:07:13 51°12.19 2°48.028 -999 -999 -999 -999
2004-01-21 08:07:19 51°12.181 2°47.991 -999 -999 -999 -999
2004-01-21 08:07:24 51°12.174 2°47.961 -999 -999 -999 -999
2004-01-21 08:07:29 51°12.166 2°47.93 -999 -999 -999 -999
2004-01-21 08:07:35 51°12.157 2°47.894 -999 -999 -999 -999
2004-01-21 08:07:40 51°12.15 2°47.863 -999 -999 -999 -999
2004-01-21 08:07:43 51°12.145 2°47.844 -999 -999 -999 -999
2004-01-21 08:07:47 51°12.139 2°47.82 -999 -999 -999 -999
2004-01-21 08:07:55 51°12.127 2°47.771 -999 -999 -999 -999
2004-01-21 08:07:59 51°12.121 2°47.746 -999 -999 -999 -999
2004-01-21 08:08:05 51°12.112 2°47.709 -999 -999 -999 -999
2004-01-21 08:08:10 51°12.105 2°47.679 -999 -999 -999 -999
2004-01-21 08:08:15 51°12.098 2°47.648 -999 -999 -999 -999
2004-01-21 08:08:20 51°12.09 2°47.617 -999 -999 -999 -999
2004-01-21 08:08:25 51°12.083 2°47.586 -999 -999 -999 -999
2004-01-21 08:08:29 51°12.076 2°47.562 -999 -999 -999 -999
2004-01-21 08:08:35 51°12.067 2°47.525 -999 -999 -999 -999
2004-01-21 08:08:39 51°12.062 2°47.501 -999 -999 -999 -999
2004-01-21 08:08:44 51°12.054 2°47.47 -999 -999 -999 -999
2004-01-21 08:08:50 51°12.046 2°47.432 -999 -999 -999 -999
2004-01-21 08:08:55 51°12.04 2°47.401 -999 -999 -999 -999
2004-01-21 08:08:59 51°12.035 2°47.376 -999 -999 -999 -999
2004-01-21 08:09:05 51°12.027 2°47.338 -999 -999 -999 -999
2004-01-21 08:09:10 51°12.021 2°47.307 -999 -999 -999 -999
2004-01-21 08:09:15 51°12.014 2°47.275 -999 -999 -999 -999
2004-01-21 08:09:19 51°12.009 2°47.25 -999 -999 -999 -999
2004-01-21 08:09:23 51°12.004 2°47.225 -999 -999 -999 -999
2004-01-21 08:09:27 51°11.999 2°47.2 -999 -999 -999 -999
2004-01-21 08:09:35 51°11.988 2°47.15 -999 -999 -999 -999
2004-01-21 08:09:39 51°11.983 2°47.124 -999 -999 -999 -999
2004-01-21 08:09:45 51°11.975 2°47.087 -999 -999 -999 -999
2004-01-21 08:09:50 51°11.968 2°47.055 -999 -999 -999 -999
2004-01-21 08:09:55 51°11.961 2°47.024 -999 -999 -999 -999
2004-01-21 08:09:59 51°11.956 2°46.999 -999 -999 -999 -999
2004-01-21 08:10:05 51°11.948 2°46.961 -999 -999 -999 -999
2004-01-21 08:10:10 51°11.941 2°46.929 -999 -999 -999 -999
2004-01-21 08:10:15 51°11.935 2°46.898 -999 -999 -999 -999
2004-01-21 08:10:19 51°11.93 2°46.872 -999 -999 -999 -999
2004-01-21 08:10:25 51°11.922 2°46.835 -999 -999 -999 -999
2004-01-21 08:10:30 51°11.915 2°46.803 -999 -999 -999 -999
2004-01-21 08:10:35 51°11.908 2°46.772 -999 -999 -999 -999
2004-01-21 08:10:39 51°11.903 2°46.746 -999 -999 -999 -999
2004-01-21 08:10:43 51°11.898 2°46.721 -999 -999 -999 -999
2004-01-21 08:10:49 51°11.89 2°46.683 -999 -999 -999 -999
2004-01-21 08:10:55 51°11.882 2°46.645 -999 -999 -999 -999
2004-01-21 08:10:59 51°11.877 2°46.62 -999 -999 -999 -999
2004-01-21 08:11:05 51°11.868 2°46.582 -999 -999 -999 -999
2004-01-21 08:11:09 51°11.863 2°46.557 -999 -999 -999 -999
2004-01-21 08:11:15 51°11.855 2°46.519 -999 -999 -999 -999
2004-01-21 08:11:19 51°11.849 2°46.494 -999 -999 -999 -999
2004-01-21 08:11:25 51°11.841 2°46.456 -999 -999 -999 -999
2004-01-21 08:11:29 51°11.836 2°46.43 -999 -999 -999 -999
2004-01-21 08:11:35 51°11.828 2°46.392 -999 -999 -999 -999
2004-01-21 08:11:39 51°11.823 2°46.367 -999 -999 -999 -999
2004-01-21 08:11:45 51°11.815 2°46.329 -999 -999 -999 -999
2004-01-21 08:11:47 51°11.812 2°46.317 -999 -999 -999 -999
2004-01-21 08:11:55 51°11.802 2°46.266 -999 -999 -999 -999
2004-01-21 08:11:59 51°11.796 2°46.24 -999 -999 -999 -999
2004-01-21 08:12:05 51°11.788 2°46.203 -999 -999 -999 -999
2004-01-21 08:12:10 51°11.782 2°46.171 -999 -999 -999 -999
2004-01-21 08:12:15 51°11.775 2°46.139 -999 -999 -999 -999
2004-01-21 08:12:19 51°11.769 2°46.114 -999 -999 -999 -999
2004-01-21 08:12:25 51°11.762 2°46.076 -999 -999 -999 -999
2004-01-21 08:12:29 51°11.757 2°46.05 -999 -999 -999 -999
2004-01-21 08:12:34 51°11.75 2°46.019 -999 -999 -999 -999
2004-01-21 08:12:40 51°11.742 2°45.981 -999 -999 -999 -999
2004-01-21 08:12:45 51°11.736 2°45.949 -999 -999 -999 -999
2004-01-21 08:12:50 51°11.729 2°45.917 -999 -999 -999 -999
2004-01-21 08:12:55 51°11.722 2°45.886 -999 -999 -999 -999
2004-01-21 08:12:59 51°11.717 2°45.86 -999 -999 -999 -999
2004-01-21 08:13:05 51°11.709 2°45.822 -999 -999 -999 -999
2004-01-21 08:13:10 51°11.702 2°45.79 -999 -999 -999 -999
2004-01-21 08:13:15 51°11.695 2°45.759 -999 -999 -999 -999
2004-01-21 08:13:20 51°11.689 2°45.727 -999 -999 -999 -999
2004-01-21 08:13:25 51°11.682 2°45.696 -999 -999 -999 -999
2004-01-21 08:13:29 51°11.677 2°45.67 -999 -999 -999 -999
2004-01-21 08:13:33 51°11.672 2°45.645 -999 -999 -999 -999
2004-01-21 08:13:39 51°11.664 2°45.607 -999 -999 -999 -999
2004-01-21 08:13:44 51°11.657 2°45.575 -999 -999 -999 -999
2004-01-21 08:13:50 51°11.65 2°45.537 -999 -999 -999 -999
2004-01-21 08:13:55 51°11.643 2°45.506 -999 -999 -999 -999
2004-01-21 08:13:59 51°11.637 2°45.48 -999 -999 -999 -999
2004-01-21 08:14:05 51°11.63 2°45.442 -999 -999 -999 -999
2004-01-21 08:14:10 51°11.623 2°45.411 -999 -999 -999 -999
2004-01-21 08:14:15 51°11.616 2°45.379 -999 -999 -999 -999
2004-01-21 08:14:19 51°11.611 2°45.354 -999 -999 -999 -999
2004-01-21 08:14:25 51°11.603 2°45.315 -999 -999 -999 -999
2004-01-21 08:14:30 51°11.597 2°45.284 -999 -999 -999 -999
2004-01-21 08:14:35 51°11.59 2°45.252 -999 -999 -999 -999
2004-01-21 08:14:39 51°11.585 2°45.227 -999 -999 -999 -999
2004-01-21 08:14:45 51°11.577 2°45.189 -999 -999 -999 -999
2004-01-21 08:14:50 51°11.571 2°45.157 -999 -999 -999 -999
2004-01-21 08:14:55 51°11.564 2°45.125 -999 -999 -999 -999
2004-01-21 08:14:59 51°11.559 2°45.1 -999 -999 -999 -999
2004-01-21 08:15:03 51°11.554 2°45.075 -999 -999 -999 -999
2004-01-21 08:15:09 51°11.546 2°45.037 -999 -999 -999 -999
2004-01-21 08:15:15 51°11.538 2°44.999 -999 -999 -999 -999
2004-01-21 08:15:19 51°11.533 2°44.973 -999 -999 -999 -999
2004-01-21 08:15:25 51°11.525 2°44.936 -999 -999 -999 -999
2004-01-21 08:15:29 51°11.52 2°44.91 -999 -999 -999 -999
2004-01-21 08:15:35 51°11.512 2°44.872 -999 -999 -999 -999
2004-01-21 08:15:39 51°11.507 2°44.847 -999 -999 -999 -999
2004-01-21 08:15:45 51°11.499 2°44.809 -999 -999 -999 -999
2004-01-21 08:15:47 51°11.496 2°44.796 -999 -999 -999 -999
2004-01-21 08:15:55 51°11.486 2°44.746 -999 -999 -999 -999
2004-01-21 08:15:59 51°11.481 2°44.72 -999 -999 -999 -999
2004-01-21 08:16:03 51°11.476 2°44.695 -999 -999 -999 -999
2004-01-21 08:16:09 51°11.469 2°44.657 -999 -999 -999 -999
2004-01-21 08:16:15 51°11.461 2°44.619 -999 -999 -999 -999
2004-01-21 08:16:19 51°11.457 2°44.593 -999 -999 -999 -999
2004-01-21 08:16:23 51°11.452 2°44.568 -999 -999 -999 -999
2004-01-21 08:16:28 51°11.446 2°44.535 -999 -999 -999 -999
2004-01-21 08:16:35 51°11.438 2°44.49 -999 -999 -999 -999
2004-01-21 08:16:39 51°11.433 2°44.465 -999 -999 -999 -999
2004-01-21 08:16:45 51°11.426 2°44.427 -999 -999 -999 -999
2004-01-21 08:16:50 51°11.42 2°44.395 -999 -999 -999 -999
2004-01-21 08:16:55 51°11.415 2°44.363 -999 -999 -999 -999
2004-01-21 08:16:59 51°11.41 2°44.337 -999 -999 -999 -999
2004-01-21 08:17:05 51°11.402 2°44.299 -999 -999 -999 -999
2004-01-21 08:17:09 51°11.398 2°44.274 -999 -999 -999 -999
2004-01-21 08:17:15 51°11.39 2°44.235 -999 -999 -999 -999
2004-01-21 08:17:19 51°11.386 2°44.21 -999 -999 -999 -999
2004-01-21 08:17:25 51°11.379 2°44.172 -999 -999 -999 -999
2004-01-21 08:17:28 51°11.375 2°44.153 -999 -999 -999 -999
2004-01-21 08:17:35 51°11.367 2°44.108 -999 -999 -999 -999
2004-01-21 08:17:39 51°11.362 2°44.082 -999 -999 -999 -999
2004-01-21 08:17:43 51°11.358 2°44.056 -999 -999 -999 -999
2004-01-21 08:17:47 51°11.353 2°44.031 -999 -999 -999 -999
2004-01-21 08:17:55 51°11.343 2°43.98 -999 -999 -999 -999
2004-01-21 08:17:59 51°11.338 2°43.955 -999 -999 -999 -999
2004-01-21 08:18:05 51°11.331 2°43.916 -999 -999 -999 -999
2004-01-21 08:18:09 51°11.327 2°43.891 -999 -999 -999 -999
2004-01-21 08:18:15 51°11.319 2°43.853 -999 -999 -999 -999
2004-01-21 08:18:19 51°11.315 2°43.827 -999 -999 -999 -999
2004-01-21 08:18:25 51°11.307 2°43.79 -999 -999 -999 -999
2004-01-21 08:18:30 51°11.3 2°43.758 -999 -999 -999 -999
2004-01-21 08:18:35 51°11.294 2°43.727 -999 -999 -999 -999
2004-01-21 08:18:40 51°11.287 2°43.695 -999 -999 -999 -999
2004-01-21 08:18:44 51°11.282 2°43.67 -999 -999 -999 -999
2004-01-21 08:18:48 51°11.277 2°43.645 -999 -999 -999 -999
2004-01-21 08:18:52 51°11.272 2°43.62 -999 -999 -999 -999
2004-01-21 08:18:59 51°11.262 2°43.577 -999 -999 -999 -999
2004-01-21 08:19:03 51°11.257 2°43.552 -999 -999 -999 -999
2004-01-21 08:19:09 51°11.249 2°43.514 -999 -999 -999 -999
2004-01-21 08:19:15 51°11.241 2°43.477 -999 -999 -999 -999
2004-01-21 08:19:19 51°11.236 2°43.452 -999 -999 -999 -999
2004-01-21 08:19:25 51°11.228 2°43.415 -999 -999 -999 -999
2004-01-21 08:19:29 51°11.223 2°43.389 -999 -999 -999 -999
2004-01-21 08:19:35 51°11.215 2°43.352 -999 -999 -999 -999
2004-01-21 08:19:39 51°11.21 2°43.327 -999 -999 -999 -999
2004-01-21 08:19:45 51°11.202 2°43.29 -999 -999 -999 -999
2004-01-21 08:19:50 51°11.196 2°43.259 -999 -999 -999 -999
2004-01-21 08:19:55 51°11.189 2°43.227 -999 -999 -999 -999
2004-01-21 08:19:59 51°11.184 2°43.202 -999 -999 -999 -999
2004-01-21 08:20:05 51°11.176 2°43.165 -999 -999 -999 -999
2004-01-21 08:20:10 51°11.169 2°43.134 -999 -999 -999 -999
2004-01-21 08:20:15 51°11.163 2°43.103 -999 -999 -999 -999
2004-01-21 08:20:20 51°11.156 2°43.072 -999 -999 -999 -999
2004-01-21 08:20:25 51°11.15 2°43.041 -999 -999 -999 -999
2004-01-21 08:20:30 51°11.143 2°43.01 -999 -999 -999 -999
2004-01-21 08:20:35 51°11.137 2°42.978 -999 -999 -999 -999
2004-01-21 08:20:40 51°11.13 2°42.947 -999 -999 -999 -999
2004-01-21 08:20:45 51°11.124 2°42.916 -999 -999 -999 -999
2004-01-21 08:20:50 51°11.117 2°42.885 -999 -999 -999 -999
2004-01-21 08:20:55 51°11.11 2°42.854 -999 -999 -999 -999
2004-01-21 08:20:59 51°11.104 2°42.83 -999 -999 -999 -999
2004-01-21 08:21:05 51°11.096 2°42.792 -999 -999 -999 -999
2004-01-21 08:21:09 51°11.09 2°42.768 -999 -999 -999 -999
2004-01-21 08:21:15 51°11.082 2°42.731 -999 -999 -999 -999
2004-01-21 08:21:20 51°11.074 2°42.7 -999 -999 -999 -999
2004-01-21 08:21:23 51°11.07 2°42.682 -999 -999 -999 -999
2004-01-21 08:21:28 51°11.063 2°42.651 -999 -999 -999 -999
2004-01-21 08:21:35 51°11.053 2°42.608 -999 -999 -999 -999
2004-01-21 08:21:39 51°11.047 2°42.583 -999 -999 -999 -999
2004-01-21 08:21:45 51°11.039 2°42.546 -999 -999 -999 -999
2004-01-21 08:21:50 51°11.032 2°42.515 -999 -999 -999 -999
2004-01-21 08:21:55 51°11.027 2°42.484 -999 -999 -999 -999
2004-01-21 08:21:59 51°11.024 2°42.458 -999 -999 -999 -999
2004-01-21 08:22:03 51°11.022 2°42.432 -999 -999 -999 -999
2004-01-21 08:22:10 51°11.023 2°42.387 -999 -999 -999 -999
2004-01-21 08:22:15 51°11.026 2°42.358 -999 -999 -999 -999
2004-01-21 08:22:19 51°11.029 2°42.337 -999 -999 -999 -999
2004-01-21 08:22:25 51°11.036 2°42.307 -999 -999 -999 -999
2004-01-21 08:22:30 51°11.042 2°42.285 -999 -999 -999 -999
2004-01-21 08:22:35 51°11.05 2°42.266 -999 -999 -999 -999
2004-01-21 08:22:39 51°11.057 2°42.253 -999 -999 -999 -999
2004-01-21 08:22:43 51°11.064 2°42.242 -999 -999 -999 -999
2004-01-21 08:22:50 51°11.076 2°42.226 -999 -999 -999 -999
2004-01-21 08:22:55 51°11.085 2°42.219 -999 -999 -999 -999
2004-01-21 08:23:00 51°11.093 2°42.213 -999 -999 -999 -999
2004-01-21 08:23:04 51°11.1 2°42.21 -999 -999 -999 -999
2004-01-21 08:23:10 51°11.109 2°42.209 -999 -999 -999 -999
2004-01-21 08:23:15 51°11.117 2°42.209 -999 -999 -999 -999
2004-01-21 08:23:19 51°11.122 2°42.209 -999 -999 -999 -999
2004-01-21 08:23:25 51°11.13 2°42.211 -999 -999 -999 -999
2004-01-21 08:23:29 51°11.134 2°42.213 -999 -999 -999 -999
2004-01-21 08:23:35 51°11.14 2°42.216 -999 -999 -999 -999
2004-01-21 08:23:39 51°11.144 2°42.218 -999 -999 -999 -999
2004-01-21 08:23:44 51°11.148 2°42.222 -999 -999 -999 -999
2004-01-21 08:23:47 51°11.15 2°42.223 -999 -999 -999 -999
2004-01-21 08:23:55 51°11.156 2°42.228 -999 -999 -999 -999
2004-01-21 08:23:59 51°11.158 2°42.23 -999 -999 -999 -999
2004-01-21 08:24:03 51°11.16 2°42.231 -999 -999 -999 -999
2004-01-21 08:24:09 51°11.163 2°42.232 -999 -999 -999 -999
2004-01-21 08:24:15 51°11.165 2°42.233 -999 -999 -999 -999
2004-01-21 08:24:19 51°11.166 2°42.233 -999 -999 -999 -999
2004-01-21 08:24:23 51°11.167 2°42.233 -999 -999 -999 -999
2004-01-21 08:24:29 51°11.168 2°42.232 -999 -999 -999 -999
2004-01-21 08:24:35 51°11.169 2°42.231 -999 -999 -999 -999
2004-01-21 08:24:39 51°11.169 2°42.23 -999 -999 -999 -999
2004-01-21 08:24:45 51°11.17 2°42.229 -999 -999 -999 -999
2004-01-21 08:24:50 51°11.171 2°42.228 -999 -999 -999 -999
2004-01-21 08:24:55 51°11.172 2°42.228 -999 -999 -999 -999
2004-01-21 08:24:59 51°11.173 2°42.227 -999 -999 -999 -999
2004-01-21 08:25:05 51°11.174 2°42.226 -999 -999 -999 -999
2004-01-21 08:25:09 51°11.175 2°42.225 -999 -999 -999 -999
2004-01-21 08:25:15 51°11.177 2°42.225 -999 -999 -999 -999
2004-01-21 08:25:19 51°11.178 2°42.224 -999 -999 -999 -999
2004-01-21 08:25:24 51°11.179 2°42.224 -999 -999 -999 -999
2004-01-21 08:25:29 51°11.18 2°42.223 -999 -999 -999 -999
2004-01-21 08:25:35 51°11.181 2°42.222 -999 -999 -999 -999
2004-01-21 08:25:39 51°11.181 2°42.222 -999 -999 -999 -999
2004-01-21 08:25:43 51°11.182 2°42.221 -999 -999 -999 -999
2004-01-21 08:25:49 51°11.183 2°42.22 -999 -999 -999 -999
2004-01-21 08:25:55 51°11.184 2°42.219 -999 -999 -999 -999
2004-01-21 08:26:00 51°11.184 2°42.218 -999 -999 -999 -999
2004-01-21 08:26:03 51°11.184 2°42.218 -999 -999 -999 -999
2004-01-21 08:26:09 51°11.185 2°42.216 -999 -999 -999 -999
2004-01-21 08:26:15 51°11.185 2°42.215 -999 -999 -999 -999
2004-01-21 08:26:20 51°11.185 2°42.214 -999 -999 -999 -999
2004-01-21 08:26:23 51°11.185 2°42.213 -999 -999 -999 -999
2004-01-21 08:26:29 51°11.185 2°42.211 -999 -999 -999 -999
2004-01-21 08:26:35 51°11.184 2°42.209 -999 -999 -999 -999
2004-01-21 08:26:39 51°11.184 2°42.208 -999 -999 -999 -999
2004-01-21 08:26:43 51°11.183 2°42.206 -999 -999 -999 -999
2004-01-21 08:26:49 51°11.182 2°42.203 -999 -999 -999 -999
2004-01-21 08:26:55 51°11.181 2°42.201 -999 -999 -999 -999
2004-01-21 08:26:59 51°11.18 2°42.198 -999 -999 -999 -999
2004-01-21 08:27:05 51°11.179 2°42.195 -999 -999 -999 -999
2004-01-21 08:27:08 51°11.178 2°42.193 -999 -999 -999 -999
2004-01-21 08:27:15 51°11.176 2°42.189 -999 -999 -999 -999
2004-01-21 08:27:19 51°11.175 2°42.187 -999 -999 -999 -999
2004-01-21 08:27:25 51°11.173 2°42.184 -999 -999 -999 -999
2004-01-21 08:27:30 51°11.172 2°42.18 -999 -999 -999 -999
2004-01-21 08:27:35 51°11.17 2°42.177 -999 -999 -999 -999
2004-01-21 08:27:40 51°11.168 2°42.174 -999 -999 -999 -999
2004-01-21 08:27:45 51°11.166 2°42.171 -999 -999 -999 -999
2004-01-21 08:27:49 51°11.165 2°42.168 -999 -999 -999 -999
2004-01-21 08:27:55 51°11.162 2°42.165 -999 -999 -999 -999
2004-01-21 08:27:59 51°11.16 2°42.162 -999 -999 -999 -999
2004-01-21 08:28:05 51°11.158 2°42.158 -999 -999 -999 -999
2004-01-21 08:28:09 51°11.156 2°42.156 -999 -999 -999 -999
2004-01-21 08:28:15 51°11.154 2°42.152 -999 -999 -999 -999
2004-01-21 08:28:19 51°11.152 2°42.15 -999 -999 -999 -999
2004-01-21 08:28:25 51°11.151 2°42.147 -999 -999 -999 -999
2004-01-21 08:28:29 51°11.151 2°42.147 -999 -999 -999 -999
2004-01-21 08:28:35 51°11.152 2°42.145 -999 -999 -999 -999
2004-01-21 08:28:39 51°11.152 2°42.144 -999 -999 -999 -999
2004-01-21 08:28:43 51°11.153 2°42.143 -999 -999 -999 -999
2004-01-21 08:28:49 51°11.154 2°42.142 -999 -999 -999 -999
2004-01-21 08:28:55 51°11.155 2°42.14 -999 -999 -999 -999
2004-01-21 08:29:00 51°11.156 2°42.139 -999 -999 -999 -999
2004-01-21 08:29:04 51°11.157 2°42.138 -999 -999 -999 -999
2004-01-21 08:29:10 51°11.157 2°42.137 -999 -999 -999 -999
2004-01-21 08:29:15 51°11.158 2°42.136 -999 -999 -999 -999
2004-01-21 08:29:19 51°11.159 2°42.135 -999 -999 -999 -999
2004-01-21 08:29:25 51°11.16 2°42.134 -999 -999 -999 -999
2004-01-21 08:29:30 51°11.16 2°42.133 -999 -999 -999 -999
2004-01-21 08:29:35 51°11.161 2°42.132 -999 -999 -999 -999
2004-01-21 08:29:39 51°11.162 2°42.132 -999 -999 -999 -999
2004-01-21 08:29:43 51°11.162 2°42.131 -999 -999 -999 -999
2004-01-21 08:29:50 51°11.163 2°42.13 -999 -999 -999 -999
2004-01-21 08:29:55 51°11.164 2°42.129 -999 -999 -999 -999
2004-01-21 08:30:00 51°11.165 2°42.128 -999 -999 -999 -999
2004-01-21 08:30:05 51°11.165 2°42.127 -999 -999 -999 -999
2004-01-21 08:30:10 51°11.166 2°42.126 -999 -999 -999 -999
2004-01-21 08:30:15 51°11.166 2°42.126 -999 -999 -999 -999
2004-01-21 08:30:19 51°11.167 2°42.125 -999 -999 -999 -999
2004-01-21 08:30:25 51°11.167 2°42.124 -999 -999 -999 -999
2004-01-21 08:30:29 51°11.168 2°42.123 -999 -999 -999 -999
2004-01-21 08:30:35 51°11.169 2°42.122 -999 -999 -999 -999
2004-01-21 08:30:39 51°11.169 2°42.122 -999 -999 -999 -999
2004-01-21 08:30:43 51°11.17 2°42.121 -999 -999 -999 -999
2004-01-21 08:30:49 51°11.17 2°42.12 -999 -999 -999 -999
2004-01-21 08:30:55 51°11.171 2°42.119 -999 -999 -999 -999
2004-01-21 08:31:00 51°11.172 2°42.118 -999 -999 -999 -999
2004-01-21 08:31:04 51°11.173 2°42.118 -999 -999 -999 -999
2004-01-21 08:31:10 51°11.174 2°42.118 -999 -999 -999 -999
2004-01-21 08:31:15 51°11.175 2°42.117 -999 -999 -999 -999
2004-01-21 08:31:19 51°11.175 2°42.117 -999 -999 -999 -999
2004-01-21 08:31:25 51°11.175 2°42.117 -999 -999 -999 -999
2004-01-21 08:31:30 51°11.175 2°42.117 -999 -999 -999 -999
2004-01-21 08:31:35 51°11.175 2°42.117 -999 -999 -999 -999
2004-01-21 08:31:39 51°11.175 2°42.117 -999 -999 -999 -999
2004-01-21 08:31:43 51°11.176 2°42.117 -999 -999 -999 -999
2004-01-21 08:31:49 51°11.176 2°42.117 -999 -999 -999 -999
2004-01-21 08:31:55 51°11.177 2°42.117 -999 -999 -999 -999
2004-01-21 08:31:59 51°11.177 2°42.117 -999 -999 -999 -999
2004-01-21 08:32:03 51°11.178 2°42.117 -999 -999 -999 -999
2004-01-21 08:32:10 51°11.179 2°42.117 -999 -999 -999 -999
2004-01-21 08:32:15 51°11.179 2°42.117 -999 -999 -999 -999
2004-01-21 08:32:20 51°11.18 2°42.117 -999 -999 -999 -999
2004-01-21 08:32:23 51°11.18 2°42.117 -999 -999 -999 -999
2004-01-21 08:32:30 51°11.181 2°42.117 -999 -999 -999 -999
2004-01-21 08:32:35 51°11.182 2°42.117 -999 -999 -999 -999
2004-01-21 08:32:39 51°11.182 2°42.117 -999 -999 -999 -999
2004-01-21 08:32:45 51°11.183 2°42.117 -999 -999 -999 -999
2004-01-21 08:32:49 51°11.184 2°42.118 -999 -999 -999 -999
2004-01-21 08:32:55 51°11.184 2°42.118 -999 -999 -999 -999
2004-01-21 08:33:00 51°11.185 2°42.118 -999 -999 -999 -999
2004-01-21 08:33:05 51°11.185 2°42.119 -999 -999 -999 -999
2004-01-21 08:33:08 51°11.186 2°42.119 -999 -999 -999 -999
2004-01-21 08:33:15 51°11.187 2°42.119 -999 -999 -999 -999
2004-01-21 08:33:19 51°11.187 2°42.12 -999 -999 -999 -999
2004-01-21 08:33:25 51°11.188 2°42.12 -999 -999 -999 -999
2004-01-21 08:33:29 51°11.189 2°42.12 -999 -999 -999 -999
2004-01-21 08:33:33 51°11.189 2°42.121 -999 -999 -999 -999
2004-01-21 08:33:40 51°11.19 2°42.122 -999 -999 -999 -999
2004-01-21 08:33:44 51°11.19 2°42.122 -999 -999 -999 -999
2004-01-21 08:33:47 51°11.191 2°42.122 -999 -999 -999 -999
2004-01-21 08:33:55 51°11.192 2°42.124 -999 -999 -999 -999
2004-01-21 08:33:59 51°11.192 2°42.124 -999 -999 -999 -999
2004-01-21 08:34:03 51°11.193 2°42.125 -999 -999 -999 -999
2004-01-21 08:34:10 51°11.193 2°42.126 -999 -999 -999 -999
2004-01-21 08:34:15 51°11.194 2°42.126 -999 -999 -999 -999
2004-01-21 08:34:19 51°11.194 2°42.127 -999 -999 -999 -999
2004-01-21 08:34:25 51°11.195 2°42.128 -999 -999 -999 -999
2004-01-21 08:34:30 51°11.195 2°42.129 -999 -999 -999 -999
2004-01-21 08:34:35 51°11.196 2°42.129 -999 -999 -999 -999
2004-01-21 08:34:39 51°11.196 2°42.13 -999 -999 -999 -999
2004-01-21 08:34:45 51°11.197 2°42.131 -999 -999 -999 -999
2004-01-21 08:34:50 51°11.198 2°42.131 -999 -999 -999 -999
2004-01-21 08:34:55 51°11.198 2°42.132 -999 -999 -999 -999
2004-01-21 08:34:59 51°11.199 2°42.133 -999 -999 -999 -999
2004-01-21 08:35:03 51°11.199 2°42.133 -999 -999 -999 -999
2004-01-21 08:35:10 51°11.2 2°42.134 -999 -999 -999 -999
2004-01-21 08:35:13 51°11.201 2°42.135 -999 -999 -999 -999
2004-01-21 08:35:19 51°11.201 2°42.136 -999 -999 -999 -999
2004-01-21 08:35:24 51°11.202 2°42.137 -999 -999 -999 -999
2004-01-21 08:35:30 51°11.202 2°42.138 -999 -999 -999 -999
2004-01-21 08:35:35 51°11.203 2°42.138 -999 -999 -999 -999
2004-01-21 08:35:40 51°11.204 2°42.139 -999 -999 -999 -999
2004-01-21 08:35:45 51°11.204 2°42.14 -999 -999 -999 -999
2004-01-21 08:35:49 51°11.204 2°42.141 -999 -999 -999 -999
2004-01-21 08:35:55 51°11.205 2°42.142 -999 -999 -999 -999
2004-01-21 08:36:00 51°11.205 2°42.143 -999 -999 -999 -999
2004-01-21 08:36:05 51°11.206 2°42.144 -999 -999 -999 -999
2004-01-21 08:36:08 51°11.206 2°42.145 -999 -999 -999 -999
2004-01-21 08:36:15 51°11.207 2°42.146 -999 -999 -999 -999
2004-01-21 08:36:19 51°11.207 2°42.147 -999 -999 -999 -999
2004-01-21 08:36:25 51°11.207 2°42.149 -999 -999 -999 -999
2004-01-21 08:36:29 51°11.208 2°42.15 -999 -999 -999 -999
2004-01-21 08:36:35 51°11.208 2°42.151 -999 -999 -999 -999
2004-01-21 08:36:39 51°11.208 2°42.152 -999 -999 -999 -999
2004-01-21 08:36:44 51°11.209 2°42.153 -999 -999 -999 -999
2004-01-21 08:36:50 51°11.209 2°42.155 -999 -999 -999 -999
2004-01-21 08:36:55 51°11.209 2°42.156 -999 -999 -999 -999
2004-01-21 08:36:59 51°11.209 2°42.158 -999 -999 -999 -999
2004-01-21 08:37:04 51°11.209 2°42.161 -999 -999 -999 -999
2004-01-21 08:37:09 51°11.209 2°42.164 -999 -999 -999 -999
2004-01-21 08:37:15 51°11.209 2°42.168 -999 -999 -999 -999
2004-01-21 08:37:19 51°11.209 2°42.171 -999 -999 -999 -999
2004-01-21 08:37:25 51°11.207 2°42.178 -999 -999 -999 -999
2004-01-21 08:37:27 51°11.207 2°42.18 -999 -999 -999 -999
2004-01-21 08:37:35 51°11.203 2°42.191 -999 -999 -999 -999
2004-01-21 08:37:40 51°11.2 2°42.197 -999 -999 -999 -999
2004-01-21 08:37:45 51°11.196 2°42.203 -999 -999 -999 -999
2004-01-21 08:37:47 51°11.194 2°42.206 -999 -999 -999 -999
2004-01-21 08:37:55 51°11.185 2°42.214 -999 -999 -999 -999
2004-01-21 08:37:59 51°11.18 2°42.217 -999 -999 -999 -999
2004-01-21 08:38:05 51°11.171 2°42.221 -999 -999 -999 -999
2004-01-21 08:38:09 51°11.165 2°42.221 -999 -999 -999 -999
2004-01-21 08:38:15 51°11.156 2°42.221 -999 -999 -999 -999
2004-01-21 08:38:19 51°11.15 2°42.219 -999 -999 -999 -999
2004-01-21 08:38:25 51°11.141 2°42.214 -999 -999 -999 -999
2004-01-21 08:38:30 51°11.134 2°42.208 -999 -999 -999 -999
2004-01-21 08:38:35 51°11.127 2°42.201 -999 -999 -999 -999
2004-01-21 08:38:39 51°11.122 2°42.193 -999 -999 -999 -999
2004-01-21 08:38:45 51°11.115 2°42.181 -999 -999 -999 -999
2004-01-21 08:38:50 51°11.11 2°42.169 -999 -999 -999 -999
2004-01-21 08:38:55 51°11.106 2°42.156 -999 -999 -999 -999
2004-01-21 08:39:00 51°11.103 2°42.142 -999 -999 -999 -999
2004-01-21 08:39:05 51°11.101 2°42.128 -999 -999 -999 -999
2004-01-21 08:39:07 51°11.099 2°42.122 -999 -999 -999 -999
2004-01-21 08:39:15 51°11.094 2°42.095 -999 -999 -999 -999
2004-01-21 08:39:20 51°11.091 2°42.075 -999 -999 -999 -999
2004-01-21 08:39:23 51°11.089 2°42.063 -999 -999 -999 -999
2004-01-21 08:39:29 51°11.085 2°42.035 -999 -999 -999 -999
2004-01-21 08:39:35 51°11.081 2°42.005 -999 -999 -999 -999
2004-01-21 08:39:39 51°11.077 2°41.983 -999 -999 -999 -999
2004-01-21 08:39:43 51°11.074 2°41.962 -999 -999 -999 -999
2004-01-21 08:39:49 51°11.069 2°41.928 -999 -999 -999 -999
2004-01-21 08:39:55 51°11.063 2°41.893 -999 -999 -999 -999
2004-01-21 08:39:59 51°11.06 2°41.869 -999 -999 -999 -999
2004-01-21 08:40:05 51°11.054 2°41.834 -999 -999 -999 -999
2004-01-21 08:40:08 51°11.051 2°41.816 -999 -999 -999 -999
2004-01-21 08:40:15 51°11.045 2°41.773 -999 -999 -999 -999
2004-01-21 08:40:19 51°11.041 2°41.749 -999 -999 -999 -999
2004-01-21 08:40:25 51°11.036 2°41.712 -999 -999 -999 -999
2004-01-21 08:40:30 51°11.031 2°41.681 -999 -999 -999 -999
2004-01-21 08:40:35 51°11.026 2°41.651 -999 -999 -999 -999
2004-01-21 08:40:40 51°11.022 2°41.62 -999 -999 -999 -999
2004-01-21 08:40:45 51°11.017 2°41.589 -999 -999 -999 -999
2004-01-21 08:40:49 51°11.013 2°41.565 -999 -999 -999 -999
2004-01-21 08:40:55 51°11.008 2°41.527 -999 -999 -999 -999
2004-01-21 08:41:00 51°11.003 2°41.496 -999 -999 -999 -999
2004-01-21 08:41:05 51°10.998 2°41.465 -999 -999 -999 -999
2004-01-21 08:41:10 51°10.994 2°41.434 -999 -999 -999 -999
2004-01-21 08:41:15 51°10.989 2°41.403 -999 -999 -999 -999
2004-01-21 08:41:19 51°10.985 2°41.378 -999 -999 -999 -999
2004-01-21 08:41:25 51°10.98 2°41.341 -999 -999 -999 -999
2004-01-21 08:41:30 51°10.975 2°41.31 -999 -999 -999 -999
2004-01-21 08:41:35 51°10.971 2°41.279 -999 -999 -999 -999
2004-01-21 08:41:40 51°10.966 2°41.248 -999 -999 -999 -999
2004-01-21 08:41:45 51°10.962 2°41.217 -999 -999 -999 -999
2004-01-21 08:41:50 51°10.958 2°41.186 -999 -999 -999 -999
2004-01-21 08:41:55 51°10.952 2°41.154 -999 -999 -999 -999
2004-01-21 08:41:59 51°10.949 2°41.129 -999 -999 -999 -999
2004-01-21 08:42:05 51°10.943 2°41.092 -999 -999 -999 -999
2004-01-21 08:42:10 51°10.938 2°41.061 -999 -999 -999 -999
2004-01-21 08:42:15 51°10.934 2°41.03 -999 -999 -999 -999
2004-01-21 08:42:20 51°10.929 2°40.999 -999 -999 -999 -999
2004-01-21 08:42:23 51°10.927 2°40.98 -999 -999 -999 -999
2004-01-21 08:42:29 51°10.921 2°40.943 -999 -999 -999 -999
2004-01-21 08:42:35 51°10.916 2°40.906 -999 -999 -999 -999
2004-01-21 08:42:39 51°10.912 2°40.881 -999 -999 -999 -999
2004-01-21 08:42:43 51°10.908 2°40.856 -999 -999 -999 -999
2004-01-21 08:42:49 51°10.902 2°40.818 -999 -999 -999 -999
2004-01-21 08:42:55 51°10.896 2°40.781 -999 -999 -999 -999
2004-01-21 08:42:59 51°10.892 2°40.756 -999 -999 -999 -999
2004-01-21 08:43:03 51°10.888 2°40.732 -999 -999 -999 -999
2004-01-21 08:43:08 51°10.882 2°40.701 -999 -999 -999 -999
2004-01-21 08:43:15 51°10.875 2°40.657 -999 -999 -999 -999
2004-01-21 08:43:19 51°10.871 2°40.632 -999 -999 -999 -999
2004-01-21 08:43:25 51°10.864 2°40.596 -999 -999 -999 -999
2004-01-21 08:43:29 51°10.86 2°40.571 -999 -999 -999 -999
2004-01-21 08:43:35 51°10.854 2°40.533 -999 -999 -999 -999
2004-01-21 08:43:39 51°10.85 2°40.509 -999 -999 -999 -999
2004-01-21 08:43:45 51°10.844 2°40.471 -999 -999 -999 -999
2004-01-21 08:43:50 51°10.838 2°40.44 -999 -999 -999 -999
2004-01-21 08:43:55 51°10.833 2°40.409 -999 -999 -999 -999
2004-01-21 08:43:59 51°10.829 2°40.385 -999 -999 -999 -999
2004-01-21 08:44:05 51°10.822 2°40.347 -999 -999 -999 -999
2004-01-21 08:44:08 51°10.819 2°40.329 -999 -999 -999 -999
2004-01-21 08:44:13 51°10.814 2°40.298 -999 -999 -999 -999
2004-01-21 08:44:19 51°10.808 2°40.26 -999 -999 -999 -999
2004-01-21 08:44:25 51°10.802 2°40.223 -999 -999 -999 -999
2004-01-21 08:44:30 51°10.796 2°40.192 -999 -999 -999 -999
2004-01-21 08:44:35 51°10.791 2°40.161 -999 -999 -999 -999
2004-01-21 08:44:39 51°10.787 2°40.137 -999 -999 -999 -999
2004-01-21 08:44:45 51°10.78 2°40.099 -999 -999 -999 -999
2004-01-21 08:44:50 51°10.775 2°40.068 -999 -999 -999 -999
2004-01-21 08:44:55 51°10.77 2°40.037 -999 -999 -999 -999
2004-01-21 08:45:00 51°10.765 2°40.006 -999 -999 -999 -999
2004-01-21 08:45:05 51°10.76 2°39.975 -999 -999 -999 -999
2004-01-21 08:45:07 51°10.758 2°39.963 -999 -999 -999 -999
2004-01-21 08:45:15 51°10.749 2°39.913 -999 -999 -999 -999
2004-01-21 08:45:20 51°10.744 2°39.882 -999 -999 -999 -999
2004-01-21 08:45:23 51°10.741 2°39.863 -999 -999 -999 -999
2004-01-21 08:45:29 51°10.735 2°39.826 -999 -999 -999 -999
2004-01-21 08:45:35 51°10.729 2°39.789 -999 -999 -999 -999
2004-01-21 08:45:39 51°10.725 2°39.764 -999 -999 -999 -999
2004-01-21 08:45:43 51°10.72 2°39.739 -999 -999 -999 -999
2004-01-21 08:45:49 51°10.714 2°39.702 -999 -999 -999 -999
2004-01-21 08:45:55 51°10.708 2°39.665 -999 -999 -999 -999
2004-01-21 08:46:00 51°10.703 2°39.633 -999 -999 -999 -999
2004-01-21 08:46:04 51°10.698 2°39.608 -999 -999 -999 -999
2004-01-21 08:46:09 51°10.693 2°39.577 -999 -999 -999 -999
2004-01-21 08:46:15 51°10.687 2°39.54 -999 -999 -999 -999
2004-01-21 08:46:19 51°10.683 2°39.515 -999 -999 -999 -999
2004-01-21 08:46:25 51°10.676 2°39.477 -999 -999 -999 -999
2004-01-21 08:46:29 51°10.672 2°39.453 -999 -999 -999 -999
2004-01-21 08:46:35 51°10.666 2°39.415 -999 -999 -999 -999
2004-01-21 08:46:39 51°10.662 2°39.39 -999 -999 -999 -999
2004-01-21 08:46:43 51°10.657 2°39.365 -999 -999 -999 -999
2004-01-21 08:46:49 51°10.651 2°39.328 -999 -999 -999 -999
2004-01-21 08:46:55 51°10.645 2°39.29 -999 -999 -999 -999
2004-01-21 08:46:59 51°10.641 2°39.265 -999 -999 -999 -999
2004-01-21 08:47:03 51°10.637 2°39.24 -999 -999 -999 -999
2004-01-21 08:47:08 51°10.632 2°39.209 -999 -999 -999 -999
2004-01-21 08:47:15 51°10.624 2°39.165 -999 -999 -999 -999
2004-01-21 08:47:19 51°10.62 2°39.14 -999 -999 -999 -999
2004-01-21 08:47:25 51°10.613 2°39.103 -999 -999 -999 -999
2004-01-21 08:47:30 51°10.608 2°39.072 -999 -999 -999 -999
2004-01-21 08:47:35 51°10.603 2°39.041 -999 -999 -999 -999
2004-01-21 08:47:39 51°10.599 2°39.016 -999 -999 -999 -999
2004-01-21 08:47:45 51°10.593 2°38.979 -999 -999 -999 -999
2004-01-21 08:47:49 51°10.589 2°38.954 -999 -999 -999 -999
2004-01-21 08:47:55 51°10.582 2°38.917 -999 -999 -999 -999
2004-01-21 08:47:59 51°10.578 2°38.892 -999 -999 -999 -999
2004-01-21 08:48:03 51°10.574 2°38.867 -999 -999 -999 -999
2004-01-21 08:48:08 51°10.568 2°38.836 -999 -999 -999 -999
2004-01-21 08:48:15 51°10.561 2°38.793 -999 -999 -999 -999
2004-01-21 08:48:19 51°10.557 2°38.768 -999 -999 -999 -999
2004-01-21 08:48:25 51°10.551 2°38.731 -999 -999 -999 -999
2004-01-21 08:48:30 51°10.546 2°38.7 -999 -999 -999 -999
2004-01-21 08:48:35 51°10.541 2°38.669 -999 -999 -999 -999
2004-01-21 08:48:40 51°10.536 2°38.638 -999 -999 -999 -999
2004-01-21 08:48:45 51°10.53 2°38.607 -999 -999 -999 -999
2004-01-21 08:48:48 51°10.528 2°38.589 -999 -999 -999 -999
2004-01-21 08:48:55 51°10.52 2°38.546 -999 -999 -999 -999
2004-01-21 08:48:59 51°10.516 2°38.521 -999 -999 -999 -999
2004-01-21 08:49:05 51°10.511 2°38.485 -999 -999 -999 -999
2004-01-21 08:49:09 51°10.506 2°38.46 -999 -999 -999 -999
2004-01-21 08:49:15 51°10.5 2°38.423 -999 -999 -999 -999
2004-01-21 08:49:19 51°10.495 2°38.399 -999 -999 -999 -999
2004-01-21 08:49:25 51°10.488 2°38.363 -999 -999 -999 -999
2004-01-21 08:49:30 51°10.482 2°38.332 -999 -999 -999 -999
2004-01-21 08:49:35 51°10.476 2°38.302 -999 -999 -999 -999
2004-01-21 08:49:39 51°10.472 2°38.277 -999 -999 -999 -999
2004-01-21 08:49:43 51°10.467 2°38.253 -999 -999 -999 -999
2004-01-21 08:49:49 51°10.46 2°38.217 -999 -999 -999 -999
2004-01-21 08:49:55 51°10.454 2°38.18 -999 -999 -999 -999
2004-01-21 08:50:00 51°10.448 2°38.15 -999 -999 -999 -999
2004-01-21 08:50:04 51°10.444 2°38.125 -999 -999 -999 -999
2004-01-21 08:50:09 51°10.438 2°38.095 -999 -999 -999 -999
2004-01-21 08:50:15 51°10.431 2°38.059 -999 -999 -999 -999
2004-01-21 08:50:19 51°10.426 2°38.035 -999 -999 -999 -999
2004-01-21 08:50:25 51°10.419 2°37.999 -999 -999 -999 -999
2004-01-21 08:50:29 51°10.415 2°37.975 -999 -999 -999 -999
2004-01-21 08:50:35 51°10.408 2°37.939 -999 -999 -999 -999
2004-01-21 08:50:39 51°10.403 2°37.914 -999 -999 -999 -999
2004-01-21 08:50:43 51°10.399 2°37.89 -999 -999 -999 -999
2004-01-21 08:50:49 51°10.391 2°37.854 -999 -999 -999 -999
2004-01-21 08:50:55 51°10.385 2°37.818 -999 -999 -999 -999
2004-01-21 08:51:00 51°10.379 2°37.788 -999 -999 -999 -999
2004-01-21 08:51:04 51°10.374 2°37.764 -999 -999 -999 -999
2004-01-21 08:51:09 51°10.368 2°37.734 -999 -999 -999 -999
2004-01-21 08:51:15 51°10.361 2°37.698 -999 -999 -999 -999
2004-01-21 08:51:19 51°10.356 2°37.674 -999 -999 -999 -999
2004-01-21 08:51:25 51°10.35 2°37.638 -999 -999 -999 -999
2004-01-21 08:51:29 51°10.345 2°37.614 -999 -999 -999 -999
2004-01-21 08:51:35 51°10.338 2°37.578 -999 -999 -999 -999
2004-01-21 08:51:40 51°10.332 2°37.548 -999 -999 -999 -999
2004-01-21 08:51:45 51°10.326 2°37.518 -999 -999 -999 -999
2004-01-21 08:51:47 51°10.324 2°37.506 -999 -999 -999 -999
2004-01-21 08:51:55 51°10.316 2°37.457 -999 -999 -999 -999
2004-01-21 08:51:59 51°10.311 2°37.433 -999 -999 -999 -999
2004-01-21 08:52:05 51°10.304 2°37.397 -999 -999 -999 -999
2004-01-21 08:52:10 51°10.298 2°37.368 -999 -999 -999 -999
2004-01-21 08:52:15 51°10.293 2°37.338 -999 -999 -999 -999
2004-01-21 08:52:20 51°10.287 2°37.308 -999 -999 -999 -999
2004-01-21 08:52:23 51°10.284 2°37.29 -999 -999 -999 -999
2004-01-21 08:52:30 51°10.276 2°37.248 -999 -999 -999 -999
2004-01-21 08:52:35 51°10.27 2°37.218 -999 -999 -999 -999
2004-01-21 08:52:39 51°10.265 2°37.194 -999 -999 -999 -999
2004-01-21 08:52:45 51°10.258 2°37.158 -999 -999 -999 -999
2004-01-21 08:52:48 51°10.255 2°37.14 -999 -999 -999 -999
2004-01-21 08:52:55 51°10.247 2°37.098 -999 -999 -999 -999
2004-01-21 08:52:59 51°10.243 2°37.074 -999 -999 -999 -999
2004-01-21 08:53:05 51°10.236 2°37.039 -999 -999 -999 -999
2004-01-21 08:53:09 51°10.232 2°37.015 -999 -999 -999 -999
2004-01-21 08:53:15 51°10.225 2°36.979 -999 -999 -999 -999
2004-01-21 08:53:19 51°10.221 2°36.955 -999 -999 -999 -999
2004-01-21 08:53:25 51°10.214 2°36.919 -999 -999 -999 -999
2004-01-21 08:53:29 51°10.209 2°36.895 -999 -999 -999 -999
2004-01-21 08:53:35 51°10.203 2°36.86 -999 -999 -999 -999
2004-01-21 08:53:39 51°10.198 2°36.836 -999 -999 -999 -999
2004-01-21 08:53:45 51°10.191 2°36.8 -999 -999 -999 -999
2004-01-21 08:53:50 51°10.185 2°36.77 -999 -999 -999 -999
2004-01-21 08:53:55 51°10.18 2°36.741 -999 -999 -999 -999
2004-01-21 08:54:00 51°10.174 2°36.711 -999 -999 -999 -999
2004-01-21 08:54:03 51°10.17 2°36.693 -999 -999 -999 -999
2004-01-21 08:54:10 51°10.163 2°36.651 -999 -999 -999 -999
2004-01-21 08:54:15 51°10.157 2°36.621 -999 -999 -999 -999
2004-01-21 08:54:19 51°10.152 2°36.598 -999 -999 -999 -999
2004-01-21 08:54:23 51°10.148 2°36.574 -999 -999 -999 -999
2004-01-21 08:54:27 51°10.143 2°36.55 -999 -999 -999 -999
2004-01-21 08:54:35 51°10.135 2°36.501 -999 -999 -999 -999
2004-01-21 08:54:39 51°10.13 2°36.478 -999 -999 -999 -999
2004-01-21 08:54:45 51°10.123 2°36.442 -999 -999 -999 -999
2004-01-21 08:54:47 51°10.121 2°36.43 -999 -999 -999 -999
2004-01-21 08:54:55 51°10.112 2°36.382 -999 -999 -999 -999
2004-01-21 08:55:00 51°10.106 2°36.352 -999 -999 -999 -999
2004-01-21 08:55:04 51°10.102 2°36.328 -999 -999 -999 -999
2004-01-21 08:55:09 51°10.096 2°36.298 -999 -999 -999 -999
2004-01-21 08:55:15 51°10.092 2°36.261 -999 -999 -999 -999
2004-01-21 08:55:19 51°10.09 2°36.236 -999 -999 -999 -999
2004-01-21 08:55:25 51°10.088 2°36.199 -999 -999 -999 -999
2004-01-21 08:55:29 51°10.087 2°36.174 -999 -999 -999 -999
2004-01-21 08:55:35 51°10.086 2°36.137 -999 -999 -999 -999
2004-01-21 08:55:40 51°10.086 2°36.106 -999 -999 -999 -999
2004-01-21 08:55:45 51°10.088 2°36.075 -999 -999 -999 -999
2004-01-21 08:55:50 51°10.09 2°36.044 -999 -999 -999 -999
2004-01-21 08:55:55 51°10.094 2°36.014 -999 -999 -999 -999
2004-01-21 08:56:00 51°10.099 2°35.985 -999 -999 -999 -999
2004-01-21 08:56:05 51°10.105 2°35.955 -999 -999 -999 -999
2004-01-21 08:56:09 51°10.11 2°35.933 -999 -999 -999 -999
2004-01-21 08:56:15 51°10.119 2°35.899 -999 -999 -999 -999
2004-01-21 08:56:19 51°10.126 2°35.877 -999 -999 -999 -999
2004-01-21 08:56:23 51°10.133 2°35.856 -999 -999 -999 -999
2004-01-21 08:56:29 51°10.147 2°35.827 -999 -999 -999 -999
2004-01-21 08:56:35 51°10.16 2°35.799 -999 -999 -999 -999
2004-01-21 08:56:40 51°10.173 2°35.776 -999 -999 -999 -999
2004-01-21 08:56:45 51°10.185 2°35.754 -999 -999 -999 -999
2004-01-21 08:56:49 51°10.195 2°35.737 -999 -999 -999 -999
2004-01-21 08:56:55 51°10.211 2°35.711 -999 -999 -999 -999
2004-01-21 08:56:59 51°10.221 2°35.694 -999 -999 -999 -999
2004-01-21 08:57:03 51°10.232 2°35.678 -999 -999 -999 -999
2004-01-21 08:57:09 51°10.25 2°35.657 -999 -999 -999 -999
2004-01-21 08:57:15 51°10.269 2°35.638 -999 -999 -999 -999
2004-01-21 08:57:20 51°10.286 2°35.625 -999 -999 -999 -999
2004-01-21 08:57:23 51°10.296 2°35.619 -999 -999 -999 -999
2004-01-21 08:57:27 51°10.31 2°35.611 -999 -999 -999 -999
2004-01-21 08:57:35 51°10.338 2°35.6 -999 -999 -999 -999
2004-01-21 08:57:40 51°10.356 2°35.594 -999 -999 -999 -999
2004-01-21 08:57:43 51°10.368 2°35.591 -999 -999 -999 -999
2004-01-21 08:57:48 51°10.386 2°35.587 -999 -999 -999 -999
2004-01-21 08:57:55 51°10.411 2°35.583 -999 -999 -999 -999
2004-01-21 08:57:59 51°10.426 2°35.583 -999 -999 -999 -999
2004-01-21 08:58:05 51°10.447 2°35.585 -999 -999 -999 -999
2004-01-21 08:58:10 51°10.466 2°35.589 -999 -999 -999 -999
2004-01-21 08:58:15 51°10.484 2°35.594 -999 -999 -999 -999
2004-01-21 08:58:19 51°10.498 2°35.599 -999 -999 -999 -999
2004-01-21 08:58:23 51°10.512 2°35.604 -999 -999 -999 -999
2004-01-21 08:58:30 51°10.537 2°35.614 -999 -999 -999 -999
2004-01-21 08:58:35 51°10.554 2°35.624 -999 -999 -999 -999
2004-01-21 08:58:40 51°10.571 2°35.636 -999 -999 -999 -999
2004-01-21 08:58:45 51°10.587 2°35.649 -999 -999 -999 -999
2004-01-21 08:58:50 51°10.603 2°35.662 -999 -999 -999 -999
2004-01-21 08:58:55 51°10.619 2°35.676 -999 -999 -999 -999
2004-01-21 08:59:00 51°10.635 2°35.69 -999 -999 -999 -999
2004-01-21 08:59:05 51°10.652 2°35.705 -999 -999 -999 -999
2004-01-21 08:59:10 51°10.667 2°35.72 -999 -999 -999 -999
2004-01-21 08:59:15 51°10.683 2°35.735 -999 -999 -999 -999
2004-01-21 08:59:19 51°10.696 2°35.747 -999 -999 -999 -999
2004-01-21 08:59:23 51°10.709 2°35.759 -999 -999 -999 -999
2004-01-21 08:59:30 51°10.731 2°35.78 -999 -999 -999 -999
2004-01-21 08:59:35 51°10.747 2°35.795 -999 -999 -999 -999
2004-01-21 08:59:39 51°10.76 2°35.807 -999 -999 -999 -999
2004-01-21 08:59:45 51°10.779 2°35.825 -999 -999 -999 -999
2004-01-21 08:59:50 51°10.795 2°35.84 -999 -999 -999 -999
2004-01-21 08:59:55 51°10.811 2°35.856 -999 -999 -999 -999
2004-01-21 08:59:59 51°10.823 2°35.868 -999 -999 -999 -999
2004-01-21 09:00:05 51°10.842 2°35.886 -999 -999 -999 -999
2004-01-21 09:00:08 51°10.852 2°35.895 -999 -999 -999 -999
2004-01-21 09:00:15 51°10.874 2°35.916 -999 -999 -999 -999
2004-01-21 09:00:19 51°10.887 2°35.928 -999 -999 -999 -999
2004-01-21 09:00:25 51°10.906 2°35.946 -999 -999 -999 -999
2004-01-21 09:00:30 51°10.922 2°35.961 -999 -999 -999 -999
2004-01-21 09:00:43 51°10.963 2°36.001 -999 -999 -999 -999
2004-01-21 09:00:49 51°10.982 2°36.019 -999 -999 -999 -999
2004-01-21 09:00:55 51°11.001 2°36.038 -999 -999 -999 -999
2004-01-21 09:00:59 51°11.014 2°36.05 -999 -999 -999 -999
2004-01-21 09:01:03 51°11.026 2°36.063 -999 -999 -999 -999
2004-01-21 09:01:10 51°11.049 2°36.084 -999 -999 -999 -999
2004-01-21 09:01:15 51°11.064 2°36.099 -999 -999 -999 -999
2004-01-21 09:01:19 51°11.077 2°36.111 -999 -999 -999 -999
2004-01-21 09:01:23 51°11.089 2°36.124 -999 -999 -999 -999
2004-01-21 09:01:30 51°11.111 2°36.145 -999 -999 -999 -999
2004-01-21 09:01:35 51°11.127 2°36.161 -999 -999 -999 -999
2004-01-21 09:01:39 51°11.14 2°36.173 -999 -999 -999 -999
2004-01-21 09:01:45 51°11.159 2°36.192 -999 -999 -999 -999
2004-01-21 09:01:50 51°11.175 2°36.207 -999 -999 -999 -999
2004-01-21 09:01:55 51°11.19 2°36.222 -999 -999 -999 -999
2004-01-21 09:02:00 51°11.206 2°36.238 -999 -999 -999 -999
2004-01-21 09:02:04 51°11.219 2°36.25 -999 -999 -999 -999
2004-01-21 09:02:09 51°11.234 2°36.266 -999 -999 -999 -999
2004-01-21 09:02:13 51°11.247 2°36.278 -999 -999 -999 -999
2004-01-21 09:02:29 51°11.298 2°36.327 -999 -999 -999 -999
2004-01-21 09:02:31 51°11.304 2°36.334 -999 -999 -999 -999
2004-01-21 09:02:39 51°11.329 2°36.358 -999 -999 -999 -999
2004-01-21 09:02:43 51°11.342 2°36.371 -999 -999 -999 -999
2004-01-21 09:02:49 51°11.361 2°36.39 -999 -999 -999 -999
2004-01-21 09:02:54 51°11.376 2°36.405 -999 -999 -999 -999
2004-01-21 09:02:59 51°11.392 2°36.421 -999 -999 -999 -999
2004-01-21 09:03:04 51°11.408 2°36.436 -999 -999 -999 -999
2004-01-21 09:03:09 51°11.424 2°36.452 -999 -999 -999 -999
2004-01-21 09:03:12 51°11.433 2°36.461 -999 -999 -999 -999
2004-01-21 09:03:19 51°11.455 2°36.483 -999 -999 -999 -999
2004-01-21 09:03:23 51°11.468 2°36.495 -999 -999 -999 -999
2004-01-21 09:03:29 51°11.487 2°36.513 -999 -999 -999 -999
2004-01-21 09:03:33 51°11.499 2°36.526 -999 -999 -999 -999
2004-01-21 09:03:39 51°11.519 2°36.545 -999 -999 -999 -999
2004-01-21 09:03:44 51°11.534 2°36.56 -999 -999 -999 -999
2004-01-21 09:03:47 51°11.543 2°36.57 -999 -999 -999 -999
2004-01-21 09:03:54 51°11.566 2°36.591 -999 -999 -999 -999
2004-01-21 09:03:59 51°11.581 2°36.607 -999 -999 -999 -999
2004-01-21 09:04:03 51°11.594 2°36.619 -999 -999 -999 -999
2004-01-21 09:04:08 51°11.61 2°36.635 -999 -999 -999 -999
2004-01-21 09:04:14 51°11.629 2°36.653 -999 -999 -999 -999
2004-01-21 09:04:19 51°11.644 2°36.668 -999 -999 -999 -999
2004-01-21 09:04:23 51°11.657 2°36.681 -999 -999 -999 -999
2004-01-21 09:04:28 51°11.673 2°36.696 -999 -999 -999 -999
2004-01-21 09:04:31 51°11.682 2°36.705 -999 -999 -999 -999
2004-01-21 09:04:39 51°11.707 2°36.73 -999 -999 -999 -999
2004-01-21 09:04:43 51°11.72 2°36.743 -999 -999 -999 -999
2004-01-21 09:04:48 51°11.736 2°36.759 -999 -999 -999 -999
2004-01-21 09:04:54 51°11.755 2°36.777 -999 -999 -999 -999
2004-01-21 09:04:59 51°11.77 2°36.792 -999 -999 -999 -999
2004-01-21 09:05:03 51°11.783 2°36.805 -999 -999 -999 -999
2004-01-21 09:05:07 51°11.796 2°36.817 -999 -999 -999 -999
2004-01-21 09:05:11 51°11.808 2°36.83 -999 -999 -999 -999
2004-01-21 09:05:19 51°11.834 2°36.854 -999 -999 -999 -999
2004-01-21 09:05:23 51°11.846 2°36.866 -999 -999 -999 -999
2004-01-21 09:05:29 51°11.865 2°36.885 -999 -999 -999 -999
2004-01-21 09:05:33 51°11.877 2°36.898 -999 -999 -999 -999
2004-01-21 09:05:39 51°11.896 2°36.917 -999 -999 -999 -999
2004-01-21 09:05:43 51°11.909 2°36.93 -999 -999 -999 -999
2004-01-21 09:05:49 51°11.928 2°36.949 -999 -999 -999 -999
2004-01-21 09:05:51 51°11.934 2°36.955 -999 -999 -999 -999
2004-01-21 09:05:59 51°11.959 2°36.979 -999 -999 -999 -999
2004-01-21 09:06:03 51°11.972 2°36.992 -999 -999 -999 -999
2004-01-21 09:06:09 51°11.991 2°37.01 -999 -999 -999 -999
2004-01-21 09:06:14 51°12.006 2°37.026 -999 -999 -999 -999
2004-01-21 09:06:19 51°12.022 2°37.041 -999 -999 -999 -999
2004-01-21 09:06:23 51°12.035 2°37.053 -999 -999 -999 -999
2004-01-21 09:06:28 51°12.051 2°37.069 -999 -999 -999 -999
2004-01-21 09:06:33 51°12.067 2°37.084 -999 -999 -999 -999
2004-01-21 09:06:39 51°12.086 2°37.102 -999 -999 -999 -999
2004-01-21 09:06:44 51°12.102 2°37.117 -999 -999 -999 -999